"Period start","avg(HW err(1)/warn(2) (#))","avg(Visibility (m))","avg(Weather code (#))","avg(Precip intensity (mm/h))","min(HW err(1)/warn(2) (#))","max(HW err(1)/warn(2) (#))","std(HW err(1)/warn(2) (#))","med(HW err(1)/warn(2) (#))","min(Visibility (m))","max(Visibility (m))","std(Visibility (m))","med(Visibility (m))","min(Weather code (#))","max(Weather code (#))","std(Weather code (#))","med(Weather code (#))","min(Precip intensity (mm/h))","max(Precip intensity (mm/h))","std(Precip intensity (mm/h))","med(Precip intensity (mm/h))"
2014-09-02 00:00:00,2,48427,54,0.42,2,2,0,2,43860,50000,2041,49333,51,61,5,51,0.30,0.75,0.14,0.35
2014-09-02 00:10:00,2,48001,51,0.34,2,2,0,2,40272,50000,3181,50000,51,51,0,51,0.00,0.70,0.20,0.30
2014-09-02 00:20:00,2,36976,52,0.60,2,2,0,2,27807,45024,5456,36176,51,52,0,52,0.20,1.10,0.27,0.60
2014-09-02 00:30:00,2,19833,54,2.54,2,2,0,2,12009,31170,5487,18890,52,61,4,52,0.40,6.30,1.82,2.30
2014-09-02 00:40:00,2,15652,61,4.80,2,2,0,2,11360,18994,2347,16026,61,61,0,61,2.55,8.00,1.78,4.43
2014-09-02 00:50:00,2,21306,61,3.90,2,2,0,2,18484,25129,2064,21305,61,61,0,61,1.40,6.60,1.32,4.05
2014-09-02 01:00:00,2,31555,61,1.05,2,2,0,2,22469,39591,6020,31268,61,61,0,61,0.15,2.60,0.87,0.75
2014-09-02 01:10:00,2,46012,42,0.04,2,2,0,2,33430,50000,4649,46437,0,61,21,51,0.00,0.25,0.07,0.00
2014-09-02 01:20:00,2,47890,0,0.00,2,2,0,2,41992,50000,2874,49666,0,0,0,0,0.00,0.00,0.00,0.00
2014-09-02 01:30:00,2,49455,0,0.00,2,2,0,2,47506,50000,968,50000,0,0,0,0,0.00,0.00,0.00,0.00
2014-09-02 01:40:00,2,49450,0,0.00,2,2,0,2,47331,50000,1056,50000,0,0,0,0,0.00,0.00,0.00,0.00
2014-09-02 01:50:00,2,49301,0,0.00,2,2,0,2,46500,50000,1046,49749,0,0,0,0,0.00,0.00,0.00,0.00
2014-09-02 02:00:00,2,45702,0,0.00,2,2,0,2,37899,50000,4347,46919,0,0,0,0,0.00,0.00,0.00,0.00
2014-09-02 02:10:00,2,40125,47,0.19,2,2,0,2,25683,49666,6806,41030,41,51,5,51,0.00,0.35,0.12,0.23
2014-09-02 02:20:00,2,38021,55,1.85,2,2,0,2,20599,50000,10156,37768,51,61,5,51,0.00,4.35,1.55,1.58
2014-09-02 02:30:00,2,25986,61,5.33,2,2,0,2,15432,44126,7607,23713,61,61,0,61,1.70,9.30,2.34,5.28
2014-09-02 02:40:00,2,15644,61,8.75,2,2,0,2,12671,18524,1876,15488,61,62,0,61,5.20,14.65,2.79,8.18
2014-09-02 02:50:00,2,23341,61,4.01,2,2,0,2,14596,47212,9260,21973,61,61,0,61,1.55,9.85,2.97,2.62
2014-09-02 03:00:00,2,27898,61,3.62,2,2,0,2,20258,38564,5751,28250,61,61,0,61,0.65,8.95,3.21,1.92
2014-09-02 03:10:00,2,24297,61,4.71,2,2,0,2,18795,32010,3715,23320,61,62,0,61,1.75,15.15,3.75,3.40
2014-09-02 03:20:00,2,23112,61,2.92,2,2,0,2,18301,37528,5209,22157,61,61,0,61,1.45,5.25,1.26,2.45
2014-09-02 03:30:00,2,31576,61,0.93,2,2,0,2,20961,43670,7600,29906,61,61,0,61,0.05,2.20,0.81,0.68
2014-09-02 03:40:00,2,44584,55,0.32,2,2,0,2,29842,50000,6160,46858,51,61,5,51,0.05,1.00,0.32,0.20
2014-09-02 03:50:00,2,26674,61,4.45,2,2,0,2,23491,30218,1997,26716,61,61,0,61,2.90,6.00,1.00,4.40
2014-09-02 04:00:00,2,25193,61,4.92,2,2,0,2,19824,30261,3423,26540,61,61,0,61,2.45,8.20,1.84,4.50
2014-09-02 04:10:00,2,16246,61,2.96,2,2,0,2,13297,20087,2122,15812,61,61,0,61,1.95,4.45,0.72,2.90
2014-09-02 04:20:00,2,15969,57,1.39,2,2,0,2,14180,18586,1392,15645,52,61,4,61,0.65,2.85,0.74,1.08
2014-09-02 04:30:00,2,12787,54,2.42,2,2,0,2,10389,17861,1969,12594,52,61,4,52,1.30,3.45,0.69,2.42
2014-09-02 04:40:00,2,18187,61,2.46,2,2,0,2,15420,21686,1841,17858,61,61,0,61,1.75,3.80,0.70,2.23
2014-09-02 04:50:00,2,18354,56,1.74,2,2,0,2,14539,24774,3089,17951,52,61,4,52,1.00,2.35,0.46,1.78
2014-09-02 05:00:00,2,14642,52,1.67,2,2,0,2,12073,20399,2323,13950,52,52,0,52,0.90,2.30,0.41,1.75
2014-09-02 05:10:00,2,12273,52,1.85,2,2,0,2,11140,14069,863,12105,52,52,0,52,1.35,2.40,0.32,1.80
2014-09-02 05:20:00,2,12035,59,2.02,2,2,0,2,9872,15247,1571,11770,52,61,4,61,1.25,3.10,0.62,1.90
2014-09-02 05:30:00,2,25453,61,2.36,2,2,0,2,10196,49215,13949,22814,61,61,0,61,0.65,6.00,1.70,2.00
2014-09-02 05:40:00,2,22235,60,2.07,2,2,0,2,17638,29617,3627,21716,52,61,3,61,1.00,3.20,0.70,2.40
2014-09-02 05:50:00,2,26965,54,1.56,2,2,0,2,19051,43858,7474,25454,52,61,4,52,0.35,3.00,0.66,1.60
2014-09-02 06:00:00,2,20666,58,1.49,2,2,0,2,17038,23301,2074,21318,52,61,4,61,0.65,2.45,0.59,1.58
2014-09-02 06:10:00,2,29481,52,0.95,2,2,0,2,22513,43903,6783,27676,52,52,0,52,0.60,1.30,0.21,0.88
2014-09-02 06:20:00,2,23959,52,1.41,2,2,0,2,15865,30444,4076,23942,52,52,0,52,0.30,1.95,0.55,1.65
2014-09-02 06:30:00,2,20079,52,1.18,2,2,0,2,10109,30865,7510,21101,52,52,0,52,0.40,2.20,0.50,1.05
2014-09-02 06:40:00,2,11816,56,2.49,2,2,0,2,8947,14334,1757,11974,52,61,4,52,1.95,3.60,0.45,2.52
2014-09-02 06:50:00,2,13421,53,2.39,2,2,0,2,11496,17060,1615,13204,52,61,3,52,1.60,3.30,0.51,2.35
2014-09-02 07:00:00,2,13796,52,2.75,2,2,0,2,10982,16547,1693,13318,52,52,0,52,2.15,3.30,0.43,2.75
2014-09-02 07:10:00,2,12298,52,2.54,2,2,0,2,10522,13551,902,12601,52,52,0,52,1.60,3.90,0.78,2.30
2014-09-02 07:20:00,2,10666,57,3.26,0,2,1,2,6716,14123,2342,10932,52,61,4,61,1.80,4.35,0.76,3.15
2014-09-02 07:30:00,2,7241,61,3.36,2,2,0,2,4257,11061,2338,6904,61,61,0,61,1.55,5.45,1.24,3.23
2014-09-02 07:40:00,2,20200,56,2.51,2,2,0,2,12631,32361,5548,19624,52,61,4,56,1.75,3.90,0.60,2.42
2014-09-02 07:50:00,2,20626,56,2.07,2,2,0,2,17620,27961,3294,19144,52,61,4,52,1.25,3.30,0.56,2.05
2014-09-02 08:00:00,2,24030,59,2.84,2,2,0,2,18647,30413,2853,23421,52,61,4,61,1.65,3.80,0.59,2.88
2014-09-02 08:10:00,2,26852,61,3.65,2,2,0,2,19083,36486,6069,25301,61,61,0,61,1.35,8.00,1.84,3.00
2014-09-02 08:20:00,2,35797,61,1.88,2,2,0,2,23913,47419,7861,37376,61,61,0,61,0.95,3.40,0.84,1.70
2014-09-02 08:30:00,2,37864,61,1.11,0,2,1,2,28466,46406,5789,38284,61,61,0,61,0.65,2.05,0.51,0.93
2014-09-02 08:40:00,0,42257,59,1.08,0,2,1,0,34988,49039,4597,41473,52,61,4,61,0.20,1.45,0.37,1.18
2014-09-02 08:50:00,0,45039,57,1.07,0,0,0,0,33510,50000,5020,44475,51,61,5,61,0.00,2.00,0.61,1.15
2014-09-02 09:00:00,0,47155,43,0.17,0,0,0,0,32799,50000,5795,50000,0,61,22,51,0.00,0.80,0.26,0.05
2014-09-02 09:10:00,0,47610,52,1.19,0,0,0,0,38035,50000,4780,50000,51,52,0,52,0.15,3.00,0.85,0.90
2014-09-02 09:20:00,0,32974,60,4.57,0,0,0,0,26510,40618,4108,32790,52,61,3,61,2.45,8.05,1.66,4.55
2014-09-02 09:30:00,0,25142,61,5.85,0,0,0,0,17907,32953,4549,24984,61,61,0,61,4.20,7.85,1.28,5.55
2014-09-02 09:40:00,0,24006,61,5.83,0,0,0,0,17732,30205,3977,23944,61,61,0,61,3.50,8.35,1.56,5.70
2014-09-02 09:50:00,0,19434,61,6.98,0,0,0,0,16559,23999,2115,18976,61,62,0,61,4.85,10.75,2.21,6.40
2014-09-02 10:00:00,0,26048,61,5.00,0,0,0,0,21250,39140,6097,23970,61,61,0,61,3.25,6.40,0.91,5.12
2014-09-02 10:10:00,0,18697,61,9.12,0,0,0,0,15004,26342,3305,17494,61,62,0,61,3.55,16.05,3.37,7.98
2014-09-02 10:20:00,0,20436,61,8.00,0,0,0,0,14580,32886,4875,19520,61,62,0,61,5.15,11.85,1.85,7.88
2014-09-02 10:30:00,0,20866,61,7.35,0,0,0,0,15306,29630,4016,19002,61,62,0,61,4.75,12.55,2.34,6.60
2014-09-02 10:40:00,0,26958,61,7.55,0,0,0,0,19770,39603,5277,25424,61,62,0,61,4.40,10.90,2.26,8.07
2014-09-02 10:50:00,0,26440,61,5.54,0,0,0,0,20351,37622,5714,24017,61,61,0,61,2.20,8.75,1.94,5.78
2014-09-02 11:00:00,0,29758,61,3.96,0,0,0,0,23941,41522,5457,29132,61,61,0,61,2.20,6.40,1.31,3.80
2014-09-02 11:10:00,0,15967,61,7.89,0,0,0,0,14364,18309,1109,15967,61,62,0,61,4.10,22.90,5.10,6.22
2014-09-02 11:20:00,0,28041,61,2.33,0,0,0,0,14472,36458,7060,30178,61,61,0,61,0.80,5.45,1.46,2.02
2014-09-02 11:30:00,0,39591,61,1.86,0,0,0,0,33651,50000,5919,36746,61,61,0,61,0.30,4.30,1.25,1.73
2014-09-02 11:40:00,0,42983,59,1.45,0,0,0,0,27329,50000,6171,44762,52,61,4,61,0.80,2.55,0.44,1.40
2014-09-02 11:50:00,0,42677,52,0.60,0,0,0,0,32199,50000,6271,41118,51,52,0,52,0.05,1.60,0.52,0.50
2014-09-02 12:00:00,0,49798,51,0.43,0,0,0,0,47976,50000,607,50000,51,51,0,51,0.00,0.75,0.24,0.50
2014-09-02 12:10:00,0,49757,40,0.05,0,0,0,0,48493,50000,503,50000,0,61,26,51,0.00,0.20,0.07,0.03
2014-09-02 12:20:00,0,49834,0,0.00,0,0,0,0,48345,50000,496,50000,0,0,0,0,0.00,0.00,0.00,0.00
2014-09-02 12:30:00,0,50000,0,0.00,0,0,0,0,50000,50000,0,50000,0,0,0,0,0.00,0.00,0.00,0.00
2014-09-02 12:40:00,0,50000,0,0.00,0,0,0,0,50000,50000,0,50000,0,0,0,0,0.00,0.00,0.00,0.00
2014-09-02 12:50:00,0,50000,0,0.00,0,0,0,0,50000,50000,0,50000,0,0,0,0,0.00,0.00,0.00,0.00
2014-09-02 13:00:00,0,50000,0,0.00,0,0,0,0,50000,50000,0,50000,0,0,0,0,0.00,0.00,0.00,0.00
2014-09-02 13:10:00,0,49858,0,0.00,0,0,0,0,48700,50000,388,50000,0,0,0,0,0.00,0.00,0.00,0.00
2014-09-02 13:20:00,0,50000,0,0.00,0,0,0,0,50000,50000,0,50000,0,0,0,0,0.00,0.00,0.00,0.00
2014-09-02 13:30:00,0,50000,0,0.00,0,0,0,0,50000,50000,0,50000,0,0,0,0,0.00,0.00,0.00,0.00
2014-09-02 13:40:00,0,50000,0,0.00,0,0,0,0,50000,50000,0,50000,0,0,0,0,0.00,0.00,0.00,0.00
2014-09-02 13:50:00,0,50000,0,0.00,0,0,0,0,50000,50000,0,50000,0,0,0,0,0.00,0.00,0.00,0.00
2014-09-02 14:00:00,0,49954,0,0.00,0,0,0,0,49542,50000,137,50000,0,0,0,0,0.00,0.00,0.00,0.00
2014-09-02 14:10:00,0,44234,24,0.28,0,0,0,0,23873,50000,8639,48587,0,61,29,0,0.00,2.30,0.68,0.00
2014-09-02 14:20:00,0,50000,42,0.15,0,0,0,0,50000,50000,0,50000,0,61,22,51,0.00,0.75,0.22,0.10
2014-09-02 14:30:00,0,50000,0,0.00,0,0,0,0,50000,50000,0,50000,0,0,0,0,0.00,0.00,0.00,0.00
2014-09-02 14:40:00,0,50000,0,0.00,0,0,0,0,50000,50000,0,50000,0,0,0,0,0.00,0.00,0.00,0.00
2014-09-02 14:50:00,0,50000,0,0.00,0,0,0,0,50000,50000,0,50000,0,0,0,0,0.00,0.00,0.00,0.00
2014-09-02 15:00:00,0,49947,0,0.00,0,0,0,0,49472,50000,158,50000,0,0,0,0,0.00,0.00,0.00,0.00
2014-09-02 15:10:00,0,48877,48,0.30,0,0,0,0,43694,50000,2201,50000,0,61,16,51,0.00,0.80,0.30,0.23
2014-09-02 15:20:00,0,50000,16,0.01,0,0,0,0,50000,50000,0,50000,0,61,25,0,0.00,0.10,0.03,0.00
2014-09-02 15:30:00,0,49978,0,0.00,0,0,0,0,49779,50000,66,50000,0,0,0,0,0.00,0.00,0.00,0.00
2014-09-02 15:40:00,0,50000,0,0.00,0,0,0,0,50000,50000,0,50000,0,0,0,0,0.00,0.00,0.00,0.00
2014-09-02 15:50:00,0,50000,0,0.00,0,0,0,0,50000,50000,0,50000,0,0,0,0,0.00,0.00,0.00,0.00
2014-09-02 16:00:00,0,49773,0,0.00,0,0,0,0,47731,50000,681,50000,0,0,0,0,0.00,0.00,0.00,0.00
2014-09-02 16:10:00,0,49684,52,0.36,0,0,0,0,46988,50000,900,50000,0,61,18,61,0.00,1.35,0.41,0.17
2014-09-02 16:20:00,0,49954,55,0.73,0,0,0,0,49647,50000,107,50000,51,61,5,51,0.05,2.75,0.91,0.28
2014-09-02 16:30:00,0,48852,61,0.77,0,0,0,0,40331,50000,2867,50000,61,61,0,61,0.00,2.05,0.66,0.70
2014-09-02 16:40:00,0,49836,0,0.00,0,0,0,0,48364,50000,491,50000,0,0,0,0,0.00,0.00,0.00,0.00
2014-09-02 16:50:00,0,49922,0,0.00,0,0,0,0,49222,50000,233,50000,0,0,0,0,0.00,0.00,0.00,0.00
2014-09-02 17:00:00,0,50000,0,0.00,0,0,0,0,50000,50000,0,50000,0,0,0,0,0.00,0.00,0.00,0.00
2014-09-02 17:10:00,0,46249,61,3.21,0,0,0,0,32115,50000,5676,49084,61,62,0,61,0.00,10.90,3.00,3.00
2014-09-02 17:20:00,0,41979,61,2.44,0,0,0,0,26781,50000,7563,43598,61,61,0,61,0.55,4.70,1.31,1.80
2014-09-02 17:30:00,0,34061,61,4.80,0,0,0,0,18271,50000,11138,33039,61,62,0,61,1.60,10.85,2.49,4.65
2014-09-02 17:40:00,0,49626,61,1.25,0,0,0,0,46261,50000,1122,50000,61,61,0,61,0.05,8.05,2.43,0.12
2014-09-02 17:50:00,0,50000,15,0.01,0,0,0,0,50000,50000,0,50000,0,51,23,0,0.00,0.05,0.02,0.00
2014-09-02 18:00:00,0,50000,0,0.00,0,0,0,0,50000,50000,0,50000,0,0,0,0,0.00,0.00,0.00,0.00
2014-09-02 18:10:00,0,50000,0,0.00,0,0,0,0,50000,50000,0,50000,0,0,0,0,0.00,0.00,0.00,0.00
2014-09-02 18:20:00,0,50000,0,0.00,0,0,0,0,50000,50000,0,50000,0,0,0,0,0.00,0.00,0.00,0.00
2014-09-02 18:30:00,0,50000,0,0.00,0,0,0,0,50000,50000,0,50000,0,0,0,0,0.00,0.00,0.00,0.00
2014-09-02 18:40:00,0,49958,0,0.00,0,0,0,0,49626,50000,118,50000,0,0,0,0,0.00,0.00,0.00,0.00
2014-09-02 18:50:00,0,50000,0,0.00,0,0,0,0,50000,50000,0,50000,0,0,0,0,0.00,0.00,0.00,0.00
2014-09-02 19:00:00,0,50000,0,0.00,0,0,0,0,50000,50000,0,50000,0,0,0,0,0.00,0.00,0.00,0.00
2014-09-02 19:10:00,0,50000,0,0.00,0,0,0,0,50000,50000,0,50000,0,0,0,0,0.00,0.00,0.00,0.00
2014-09-02 19:20:00,0,47006,0,0.00,0,0,0,0,28466,50000,6669,50000,0,0,0,0,0.00,0.00,0.00,0.00
2014-09-02 19:30:00,0,32934,52,1.26,0,0,0,0,17674,50000,11861,32879,0,61,18,61,0.00,1.90,0.70,1.62
2014-09-02 19:40:00,0,28629,55,1.86,0,0,0,0,17495,39166,7233,27314,52,61,4,52,0.85,4.10,0.90,1.62
2014-09-02 19:50:00,0,29831,60,1.79,0,0,0,0,22325,45370,5821,28770,52,61,3,61,1.05,2.50,0.46,1.92
2014-09-02 20:00:00,0,38348,52,0.47,0,0,0,0,24741,50000,9391,39508,51,52,0,52,0.05,1.10,0.42,0.28
2014-09-02 20:10:00,0,24618,52,1.47,0,0,0,0,16158,44954,8997,20894,51,52,0,52,0.05,2.15,0.67,1.85
2014-09-02 20:20:00,0,31776,52,0.88,0,0,0,0,25114,42293,5687,29725,52,52,0,52,0.50,1.30,0.25,0.80
2014-09-02 20:30:00,0,49725,10,0.01,0,0,0,0,48733,50000,455,50000,0,52,21,0,0.00,0.10,0.03,0.00
2014-09-02 20:40:00,0,50000,0,0.00,0,0,0,0,50000,50000,0,50000,0,0,0,0,0.00,0.00,0.00,0.00
2014-09-02 20:50:00,0,49936,0,0.00,0,0,0,0,49595,50000,133,50000,0,0,0,0,0.00,0.00,0.00,0.00
2014-09-02 21:00:00,0,50000,0,0.00,0,0,0,0,50000,50000,0,50000,0,0,0,0,0.00,0.00,0.00,0.00
2014-09-02 21:10:00,0,50000,0,0.00,0,0,0,0,50000,50000,0,50000,0,0,0,0,0.00,0.00,0.00,0.00
2014-09-02 21:20:00,0,50000,0,0.00,0,0,0,0,50000,50000,0,50000,0,0,0,0,0.00,0.00,0.00,0.00
2014-09-02 21:30:00,0,50000,0,0.00,0,0,0,0,50000,50000,0,50000,0,0,0,0,0.00,0.00,0.00,0.00
2014-09-02 21:40:00,0,50000,0,0.00,0,0,0,0,50000,50000,0,50000,0,0,0,0,0.00,0.00,0.00,0.00
2014-09-02 21:50:00,0,48922,0,0.00,0,0,0,0,41864,50000,2477,50000,0,0,0,0,0.00,0.00,0.00,0.00
2014-09-02 22:00:00,0,49589,0,0.00,0,0,0,0,46412,50000,1070,50000,0,0,0,0,0.00,0.00,0.00,0.00
2014-09-02 22:10:00,0,50000,0,0.00,0,0,0,0,50000,50000,0,50000,0,0,0,0,0.00,0.00,0.00,0.00
2014-09-02 22:20:00,0,50000,0,0.00,0,0,0,0,50000,50000,0,50000,0,0,0,0,0.00,0.00,0.00,0.00
2014-09-02 22:30:00,0,50000,0,0.00,0,0,0,0,50000,50000,0,50000,0,0,0,0,0.00,0.00,0.00,0.00
2014-09-02 22:40:00,0,50000,0,0.00,0,0,0,0,50000,50000,0,50000,0,0,0,0,0.00,0.00,0.00,0.00
2014-09-02 22:50:00,0,50000,0,0.00,0,0,0,0,50000,50000,0,50000,0,0,0,0,0.00,0.00,0.00,0.00
2014-09-02 23:00:00,0,50000,0,0.00,0,0,0,0,50000,50000,0,50000,0,0,0,0,0.00,0.00,0.00,0.00
2014-09-02 23:10:00,0,49922,0,0.00,0,0,0,0,49223,50000,233,50000,0,0,0,0,0.00,0.00,0.00,0.00
2014-09-02 23:20:00,0,50000,0,0.00,0,0,0,0,50000,50000,0,50000,0,0,0,0,0.00,0.00,0.00,0.00
2014-09-02 23:30:00,0,50000,0,0.00,0,0,0,0,50000,50000,0,50000,0,0,0,0,0.00,0.00,0.00,0.00
2014-09-02 23:40:00,0,32794,28,0.43,0,0,0,0,19071,50000,10925,29261,0,61,28,26,0.00,1.55,0.52,0.15
2014-09-02 23:50:00,0,48486,16,0.09,0,0,0,0,42271,50000,2625,50000,0,52,24,0,0.00,0.75,0.22,0.00
